Hourly Data Report for December 25, 2003

SHERBROOKE A
QUEBEC

45°26'00.000" N
71°41'00.000" W
241.40 m
7028124
71610
YSC

Download Data

Hourly Data (December 2003)
Hourly Data Report for December 25, 2003
TIME
LST
Temp Definition
°C
Dew Point Definition
°C
Rel Hum Definition
%
Precip. Amount Definition
mm

Wind Dir Definition
10's deg

Wind Spd Definition
km/h
Visibility Definition
km
Stn Press Definition
kPa
Hmdx Definition


Wind Chill Definition


Weather Definition


00:00 6.7 6.0 95   32 4 1.1 97.68      
01:00 5.5 4.6 94   13 13 0.5 97.66      
02:00 4.4 3.0 91   29 15 15.0 97.85     Drizzle
03:00 3.4 2.4 93   28 13 5.6 97.91     Drizzle
04:00 3.2 2.3 94   30 7 1.4 97.94     Moderate Drizzle
05:00 3.0 2.0 93   30 6 2.6 98.01     Rain
06:00 2.4 1.4 93   33 4 5.6 98.05      
07:00 1.9 0.9 93     0 1.0 98.10      
08:00 1.1 0.3 94     0 4.8 98.13     Rain, Fog
09:00 2.1 1.2 94     0 16.1 98.07     Cloudy
10:00 2.0 0.7 91   25 4 24.1 98.08     Cloudy
11:00 2.0 0.3 88   30 7 19.3 97.96     Cloudy
12:00 2.0 -0.4 84   30 9 24.1 97.89     Cloudy
13:00 1.7 -0.4 86   28 6 24.1 97.77     Rain
14:00 1.1 -0.6 88   31 9 1.6 97.72     Snow Showers
15:00 0.2 -0.9 92   23 6 1.2 97.76     Snow
16:00 0.0 -1.0 93   27 11 0.8 97.63   -4 Moderate Snow
17:00 -0.1 -1.3 92   28 17 0.8 97.54   -5 Moderate Snow
18:00 -0.2 -1.4 92   27 11 1.1 97.56   -4 Snow
19:00 -0.3 -1.5 92   24 11 0.6 97.51   -4 Moderate Snow
20:00 -0.5 -1.6 92   25 13 0.6 97.40   -5 Snow
21:00 -0.8 -2.1 91   24 17 0.5 97.34   -6 Snow
22:00 -1.0 -2.4 90   25 22 0.5 97.25   -7 Moderate Snow
23:00 -1.7 -3.0 91   25 20 0.3 97.20   -7 Snow

Notes on Data Quality.

Legend

  • E = Estimated
  • M = Missing
  • NA = Not Available*
  • [empty] = Indicates an unobserved value
Date modified: